Location: Newark
(52.8300°N, 8.0000°E)
Time: 16:45:30
(UTC+00:00)

STARLINK-1071 - Pass Details

Date: 30 January 2020
Orbit: 345 x 354 km, 53.0° (Epoch: 26 February)

Event Time Altitude Azimuth Distance (km) Brightness Sun altitude
Rises 18:09:18 0° 283° (WNW) 2,184 8.1 -18.2°
Reaches altitude 10° 18:11:35 10° 267° (W) 1,336 6.9 -18.5°
Maximum altitude 18:13:57 22° 214° (SW) 853 5.0 -18.9°
Enters shadow 18:15:16 16° 177° (S) 1,023 5.0 -19.1°
